This is the latest recevied weather packets stored in our database for station/object VK5TRM-13. If no packets are shown the sender has not sent any weather packets the latest 10 day(s).
| Time | Temp. | Humidity | Pressure | Rain* | Wind** | Luminosity | Snow |
|---|---|---|---|---|---|---|---|
| 1777575604 | 8.33° C | 74% | 1020.5 hPa | 0 mm | - | - | - |
| 1777574704 | 8.33° C | 74% | 1020.5 hPa | 0 mm | - | - | - |
| 1777573804 | 7.78° C | 76% | 1020.4 hPa | 0 mm | - | - | - |
| 1777572904 | 7.78° C | 76% | 1020.4 hPa | 0 mm | - | - | - |
| 1777572004 | 7.78° C | 74% | 1020.4 hPa | 0 mm | - | - | - |
| 1777571104 | 7.78° C | 74% | 1020.4 hPa | 0 mm | - | - | - |
| 1777570204 | 7.78° C | 73% | 1020.6 hPa | 0 mm | - | - | - |
| 1777569305 | 7.78° C | 73% | 1020.6 hPa | 0 mm | - | - | - |
| 1777568405 | 8.33° C | 74% | 1021 hPa | 0 mm | - | - | - |
| 1777567505 | 8.33° C | 74% | 1021 hPa | 0 mm | - | - | - |
| 1777566605 | 8.33° C | 72% | 1021.3 hPa | 0 mm | - | - | - |
| 1777565704 | 8.33° C | 72% | 1021.3 hPa | 0 mm | - | - | - |
| 1777564806 | 8.33° C | 71% | 1021.4 hPa | 0 mm | - | - | - |
| 1777563905 | 8.33° C | 71% | 1021.4 hPa | 0 mm | - | - | - |
| 1777563004 | 9.44° C | 72% | 1021.5 hPa | 0 mm | - | - | - |
| 1777562104 | 9.44° C | 72% | 1021.5 hPa | 0 mm | - | - | - |
| 1777561204 | 9.44° C | 74% | 1021.5 hPa | 0 mm | - | - | - |
| 1777560304 | 9.44° C | 74% | 1021.5 hPa | 0 mm | - | - | - |
| 1777559404 | 9.44° C | 66% | 1021.5 hPa | 0 mm | - | - | - |
| 1777558504 | 9.44° C | 66% | 1021.5 hPa | 0 mm | - | - | - |
| 1777557605 | 9.44° C | 72% | 1021.7 hPa | 0 mm | - | - | - |
| 1777556705 | 9.44° C | 72% | 1021.7 hPa | 0 mm | - | - | - |
| 1777555805 | 9.44° C | 68% | 1022.1 hPa | 0 mm | - | - | - |
| 1777554905 | 9.44° C | 68% | 1022.1 hPa | 0 mm | - | - | - |
| 1777554009 | 10° C | 67% | 1022.1 hPa | 0 mm | - | - | - |
* Rain since midnight (hover to see other rain measurements)
** Current wind speed in m/s (hover to see current wind gust speed)